Weather History for Wahoo, NE

Change the Weather History Date:

Wednesday, February 13, 2013

  Actual Average Record
Temperature  
Mean Temperature 40 °F -  
Max Temperature 54 °F 38 °F 70 °F (1990)
Min Temperature 27 °F 16 °F -2 °F (1986)
Degree Days  
Heating Degree Days 24    
Moisture  
Dew Point 27 °F    
Average Humidity 63    
Maximum Humidity 86    
Minimum Humidity 35    
Precipitation  
Precipitation 0.01 in - - ()
Sea Level Pressure  
Sea Level Pressure 29.81 in    
Wind  
Wind Speed 7 mph (WSW)    
Max Wind Speed 16 mph    
Max Gust Speed 21 mph    
Visibility 10 miles    
Events      
Averages and records for this station are not official NWS values.
T = Trace of Precipitation, MM = Missing Value Source: NWS Daily Summary

Daily Weather History Graph

Daily Weather History Graph

Search for Another Location

Airport:

Trip Planner

Search our weather history database for the weather conditions in past years. The results will help you decide how hot, cold, wet, or windy it might be!

Date:

Astronomy

Feb. 13, 2013 Rise Set
Actual Time 7:23 AM CST 5:58 PM CST
Civil Twilight 6:54 AM CST 6:26 PM CST
Nautical Twilight 6:22 AM CST 6:59 PM CST
Astronomical Twilight 5:50 AM CST 7:31 PM CST
Moon 8:50 AM CST (2/13) 10:05 PM CST (2/13)
Length of Visible Light 11h 31m
Length of Day
10h 35m
Waxing Crescent, 14% of the Moon is Illuminated
Feb 13
Waxing Crescent
Feb 17
First Quarter
Feb 25
Full
Mar 4
Last Quarter
Mar 11
New

Hourly Weather History & Observations

Time (CST) Temp. Windchill Dew Point Humidity Pressure Visibility Wind Dir Wind Speed Gust Speed Precip Events Conditions
12:15 AM 30.2 °F 23.4 °F 23.7 °F 77% 29.90 in 10.0 mi West 6.9 mph - N/A   Clear
12:35 AM 30.2 °F 23.4 °F 23.7 °F 77% 29.90 in 10.0 mi West 6.9 mph - N/A   Clear
12:55 AM 30.0 °F 25.2 °F 23.7 °F 77% 29.90 in 10.0 mi WSW 4.6 mph - N/A   Clear
1:15 AM 29.3 °F 25.6 °F 23.2 °F 78% 29.90 in 10.0 mi WSW 3.5 mph - N/A   Clear
1:35 AM 29.3 °F - 23.4 °F 78% 29.90 in 10.0 mi Calm Calm - N/A   Clear
1:55 AM 28.9 °F 25.2 °F 23.0 °F 78% 29.90 in 10.0 mi West 3.5 mph - N/A   Clear
2:15 AM 28.6 °F - 23.0 °F 80% 29.90 in 10.0 mi Calm Calm - N/A   Clear
2:35 AM 28.6 °F 23.5 °F 23.4 °F 81% 29.89 in 10.0 mi WSW 4.6 mph - N/A   Clear
2:55 AM 28.4 °F 23.3 °F 23.4 °F 81% 29.89 in 10.0 mi West 4.6 mph - N/A   Clear
3:15 AM 29.1 °F 22.1 °F 23.5 °F 80% 29.88 in 10.0 mi WSW 6.9 mph - N/A   Clear
3:35 AM 28.8 °F 22.6 °F 23.5 °F 81% 29.88 in 10.0 mi West 5.8 mph - N/A   Clear
3:55 AM 28.2 °F 24.4 °F 23.2 °F 81% 29.87 in 10.0 mi WSW 3.5 mph - N/A   Clear
4:15 AM 28.9 °F 21.9 °F 23.7 °F 81% 29.87 in 10.0 mi West 6.9 mph - N/A   Clear
4:35 AM 28.2 °F 23.1 °F 23.4 °F 82% 29.86 in 10.0 mi WSW 4.6 mph - N/A   Clear
4:55 AM 28.2 °F 22.0 °F 23.5 °F 83% 29.85 in 10.0 mi West 5.8 mph - N/A   Clear
5:15 AM 28.0 °F 22.8 °F 23.4 °F 83% 29.85 in 10.0 mi West 4.6 mph - N/A   Clear
5:35 AM 28.0 °F 21.7 °F 23.5 °F 83% 29.85 in 10.0 mi West 5.8 mph - N/A   Clear
5:55 AM 27.5 °F 19.3 °F 23.7 °F 86% 29.85 in 10.0 mi West 8.1 mph - N/A   Clear
6:15 AM 28.4 °F 23.3 °F 23.9 °F 83% 29.85 in 10.0 mi West 4.6 mph - N/A   Clear
6:35 AM 28.0 °F 21.7 °F 23.7 °F 84% 29.85 in 10.0 mi West 5.8 mph - N/A   Clear
6:55 AM 28.8 °F 22.6 °F 23.9 °F 82% 29.85 in 10.0 mi West 5.8 mph - N/A   Clear
7:15 AM 28.0 °F 22.8 °F 23.7 °F 84% 29.85 in 10.0 mi West 4.6 mph - N/A   Clear
7:35 AM 28.8 °F 23.7 °F 24.3 °F 83% 29.85 in 10.0 mi West 4.6 mph - N/A   Clear
7:55 AM 29.7 °F 26.1 °F 25.2 °F 83% 29.85 in 10.0 mi WSW 3.5 mph - N/A   Clear
8:15 AM 30.2 °F - 25.3 °F 82% 29.85 in 10.0 mi Calm Calm - N/A   Clear
8:35 AM 31.1 °F 27.7 °F 25.5 °F 80% 29.86 in 10.0 mi West 3.5 mph - N/A   Clear
8:55 AM 31.1 °F 26.4 °F 25.7 °F 80% 29.86 in 10.0 mi WSW 4.6 mph - N/A   Clear
9:15 AM 32.0 °F - 26.4 °F 80% 29.86 in 10.0 mi Calm Calm - N/A   Clear
9:35 AM 34.3 °F 27.0 °F 27.9 °F 77% 29.85 in 10.0 mi West 9.2 mph - N/A   Clear
9:55 AM 36.0 °F 30.3 °F 28.6 °F 75% 29.84 in 10.0 mi WSW 6.9 mph - N/A   Clear
10:15 AM 38.3 °F - 28.9 °F 69% 29.84 in 10.0 mi Calm Calm - N/A   Clear
10:35 AM 39.9 °F 36.7 °F 29.8 °F 67% 29.83 in 10.0 mi SW 4.6 mph - N/A   Clear
10:55 AM 42.1 °F 38.4 °F 30.0 °F 62% 29.83 in 10.0 mi WSW 5.8 mph - N/A   Clear
11:15 AM 45.1 °F 40.8 °F 30.7 °F 57% 29.83 in 10.0 mi WSW 8.1 mph - N/A   Clear
11:35 AM 47.3 °F - 30.0 °F 51% 29.83 in 10.0 mi WSW 10.4 mph - N/A   Clear
11:55 AM 48.4 °F - 30.0 °F 49% 29.81 in 10.0 mi SW 10.4 mph - 0.01 in   Clear
12:15 PM 49.5 °F - 29.5 °F 46% 29.80 in 10.0 mi SW 12.7 mph 16.1 mph N/A   Clear
12:35 PM 50.5 °F - 29.1 °F 44% 29.80 in 10.0 mi WSW 12.7 mph - N/A   Clear
12:55 PM 51.3 °F - 28.9 °F 42% 29.79 in 10.0 mi SW 11.5 mph - N/A   Clear
1:15 PM 52.2 °F - 28.9 °F 41% 29.78 in 10.0 mi WSW 11.5 mph 16.1 mph N/A   Clear
1:35 PM 52.5 °F - 28.2 °F 39% 29.77 in 10.0 mi WSW 10.4 mph - N/A   Clear
1:55 PM 53.2 °F - 28.0 °F 38% 29.77 in 10.0 mi WSW 15.0 mph 19.6 mph N/A   Clear
2:15 PM 53.2 °F - 27.1 °F 37% 29.76 in 10.0 mi WSW 13.8 mph 18.4 mph N/A   Clear
2:35 PM 53.6 °F - 27.5 °F 37% 29.75 in 10.0 mi WSW 13.8 mph 20.7 mph N/A   Clear
2:55 PM 53.6 °F - 27.1 °F 36% 29.73 in 10.0 mi WSW 11.5 mph 18.4 mph N/A   Clear
3:15 PM 54.3 °F - 27.3 °F 35% 29.73 in 10.0 mi WSW 10.4 mph 20.7 mph N/A   Clear
3:35 PM 54.1 °F - 26.6 °F 35% 29.73 in 10.0 mi WSW 16.1 mph - N/A   Clear
3:55 PM 52.9 °F - 25.9 °F 35% 29.73 in 10.0 mi WSW 12.7 mph 20.7 mph N/A   Clear
4:15 PM 52.3 °F - 26.4 °F 37% 29.73 in 10.0 mi WSW 13.8 mph 19.6 mph N/A   Clear
4:35 PM 52.3 °F - 25.9 °F 36% 29.72 in 10.0 mi WSW 9.2 mph 19.6 mph N/A   Scattered Clouds
4:55 PM 53.1 °F - 26.2 °F 35% 29.72 in 10.0 mi WSW 11.5 mph 18.4 mph N/A   Scattered Clouds
5:15 PM 50.5 °F - 26.8 °F 40% 29.73 in 10.0 mi SW 9.2 mph - N/A   Scattered Clouds
5:35 PM 49.6 °F - 28.0 °F 43% 29.72 in 10.0 mi SW 9.2 mph - N/A   Overcast
5:55 PM 48.9 °F - 28.4 °F 45% 29.72 in 10.0 mi SW 8.1 mph - N/A   Overcast
6:15 PM 47.3 °F - 29.1 °F 49% 29.73 in 10.0 mi WSW 6.9 mph - N/A   Overcast
6:35 PM 44.4 °F 39.5 °F 29.3 °F 55% 29.73 in 10.0 mi West 9.2 mph - N/A   Scattered Clouds
6:55 PM 43.9 °F 38.8 °F 28.6 °F 55% 29.73 in 10.0 mi West 9.2 mph - N/A   Clear
7:15 PM 43.2 °F 37.4 °F 28.4 °F 56% 29.74 in 10.0 mi West 10.4 mph - N/A   Clear
7:35 PM 40.5 °F 34.6 °F 27.9 °F 61% 29.74 in 10.0 mi West 9.2 mph - N/A   Clear
7:55 PM 41.0 °F 34.7 °F 28.4 °F 61% 29.74 in 10.0 mi West 10.4 mph - N/A   Mostly Cloudy
8:15 PM 40.8 °F 35.0 °F 28.2 °F 61% 29.74 in 10.0 mi WSW 9.2 mph - N/A   Mostly Cloudy
8:35 PM 41.0 °F 33.9 °F 28.8 °F 62% 29.74 in 10.0 mi West 12.7 mph - N/A   Mostly Cloudy
8:55 PM 40.3 °F 32.6 °F 29.1 °F 64% 29.74 in 10.0 mi West 13.8 mph - N/A   Scattered Clouds
9:15 PM 41.9 °F 34.3 °F 29.7 °F 62% 29.75 in 10.0 mi West 15.0 mph - N/A   Mostly Cloudy
9:35 PM 41.5 °F 34.6 °F 29.7 °F 63% 29.76 in 10.0 mi West 12.7 mph - N/A   Mostly Cloudy
9:55 PM 42.1 °F 35.7 °F 30.0 °F 62% 29.76 in 10.0 mi West 11.5 mph - N/A   Mostly Cloudy
10:15 PM 41.4 °F 34.7 °F 29.8 °F 64% 29.77 in 10.0 mi West 11.5 mph - N/A   Scattered Clouds
10:35 PM 42.8 °F 36.6 °F 30.2 °F 61% 29.77 in 10.0 mi West 11.5 mph - N/A   Mostly Cloudy
10:55 PM 41.9 °F 35.9 °F 30.0 °F 63% 29.77 in 10.0 mi West 10.4 mph - N/A   Overcast
11:15 PM 41.0 °F 34.7 °F 30.2 °F 65% 29.78 in 10.0 mi WNW 10.4 mph - N/A   Scattered Clouds
11:35 PM 41.4 °F 34.3 °F 30.2 °F 65% 29.78 in 10.0 mi WNW 12.7 mph - N/A   Scattered Clouds
11:55 PM 41.4 °F 33.3 °F 30.2 °F 65% 29.79 in 10.0 mi WNW 16.1 mph 19.6 mph N/A   Clear